OE5MIL-13 Weather Reports


Display with metric or nautical units.
time (UTC)temp
F
wind
direction
speed
MPH
gust
MPH
rain 1hr
in
rain 24hr
in
rain mn
in
humidity
%
barometer
mb
20260508112714 45 296 1.0 3.0 0.00 0.00 0.00 100
20260508110713 48 344 2.0 7.0 0.00 0.00 0.00 100
20260508104712 49 343 1.0 9.0 0.00 0.00 0.00 100
20260508102711 49 340 5.0 8.0 0.00 0.00 0.00 100
20260508100709 47 298 3.0 6.0 0.00 0.00 0.00 100
20260508094759 46 298 5.0 7.0 0.00 0.00 0.00 100
20260508094708 46 298 5.0 7.0 0.00 0.00 0.00 100
20260508092707 45 289 2.0 7.0 0.00 0.00 0.00 100
20260508090931 43 8 3.0 6.0 0.00 0.00 0.00 100
20260508090706 43 8 3.0 6.0 0.00 0.00 0.00 100
20260508084705 44 307 3.0 7.0 0.00 0.00 0.00 100
20260508082704 42 358 3.0 5.0 0.00 0.00 0.00 100
20260508080703 41 306 2.0 5.0 0.00 0.00 0.00 100
20260508074702 40 310 2.0 3.0 0.00 0.00 0.00 100
20260508072700 39 333 0.0 4.0 0.00 0.00 0.00 100
20260508070659 38 127 0.0 0.0 0.00 0.00 0.00 100
20260508064658 36 127 0.0 0.0 0.00 0.00 0.00 100
20260508062657 35 82 0.0 0.0 0.00 0.00 0.00 100
20260508060656 34 82 0.0 0.0 0.00 0.00 0.00 100
20260508054654 32 82 0.0 0.0 0.00 0.00 0.00 100
20260508052653 31 82 0.0 0.0 0.00 0.00 0.00 100
20260508050652 29 82 0.0 0.0 0.00 0.00 0.00 100
20260508044651 28 82 0.0 0.0 0.00 0.00 0.00 100
20260508042650 28 82 0.0 0.0 0.00 0.00 0.00 100
20260508040649 28 82 0.0 0.0 0.00 0.00 0.00 100
20260508034648 28 82 0.0 0.0 0.00 0.00 0.00 100
20260508032646 28 82 0.0 0.0 0.00 0.00 0.00 100
20260508030645 29 122 0.0 2.0 0.00 0.00 0.00 100
20260508024644 29 125 2.0 3.0 0.00 0.00 0.00 100
20260508022644 28 175 2.0 5.0 0.00 0.00 0.00 100
20260508020643 28 125 0.0 0.0 0.00 0.00 0.00 100
20260508014641 29 125 0.0 0.0 0.00 0.00 0.00 100
20260508012640 30 125 0.0 0.0 0.00 0.00 0.00 100
20260508010638 30 216 2.0 4.0 0.00 0.00 0.00 100
20260508004637 30 147 1.0 5.0 0.00 0.00 0.00 100
20260508002636 30 156 5.0 9.0 0.00 0.00 0.00 100
20260508000635 30 120 0.0 0.0 0.00 0.00 0.00 100
20260507234635 30 120 0.0 0.0 0.00 0.00 0.00 100
20260507232633 30 120 0.0 0.0 0.00 0.00 0.00 100
20260507230632 31 120 0.0 0.0 0.00 0.00 0.00 100
20260507224630 31 120 0.0 0.0 0.00 0.00 0.00 100
20260507222629 32 120 0.0 3.0 0.00 0.00 0.00 100
20260507220628 33 85 0.0 0.0 0.00 0.00 0.00 100
20260507214627 33 85 0.0 0.0 0.00 0.00 0.00 100
20260507212626 33 177 0.0 0.0 0.00 0.00 0.00 100
20260507210625 32 177 0.0 2.0 0.00 0.00 0.00 100
20260507204624 33 78 0.0 0.0 0.00 0.00 0.00 100
20260507202622 33 78 0.0 0.0 0.00 0.00 0.00 100
20260507200622 33 78 0.0 0.0 0.00 0.00 0.00 100
20260507194622 32 78 0.0 0.0 0.00 0.00 0.00 100
20260507192619 32 78 0.0 0.0 0.00 0.00 0.00 100
20260507190618 32 78 0.0 0.0 0.00 0.00 0.00 100
20260507184617 32 78 0.0 0.0 0.00 0.00 0.00 100
20260507182618 34 354 0.0 0.0 0.00 0.00 0.00 100
20260507180614 34 354 0.0 0.0 0.00 0.00 0.00 100
20260507174614 34 306 2.0 6.0 0.00 0.00 0.00 100
20260507172612 34 358 0.0 2.0 0.00 0.00 0.00 100
20260507170611 34 317 0.0 4.0 0.00 0.00 0.00 100
20260507164610 35 4 0.0 3.0 0.00 0.00 0.00 100
20260507162609 36 146 0.0 2.0 0.00 0.00 0.00 100
20260507160607 36 9 0.0 1.0 0.00 0.00 0.00 100
20260507154606 37 320 2.0 3.0 0.00 0.00 0.00 100
20260507152605 37 350 0.0 0.0 0.00 0.00 0.00 100
20260507150604 34 350 0.0 2.0 0.00 0.00 0.00 100
20260507144603 34 291 0.0 0.0 0.00 0.00 0.00 100
20260507142602 33 291 0.0 1.0 0.00 0.00 0.00 100
20260507140600 32 303 0.0 3.0 0.00 0.00 0.00 100
20260507134559 32 317 7.0 9.0 0.00 0.00 0.00 100
20260507132558 32 288 6.0 9.0 0.00 0.00 0.00 100
20260507130557 34 291 4.0 6.0 0.00 0.00 0.00 100
20260507124557 35 350 0.0 0.0 0.00 0.00 0.00 100
20260507122555 36 350 0.0 3.0 0.00 0.00 0.00 100
20260507120554 37 330 0.0 2.0 0.00 0.00 0.00 100